• în România
  • Lista ţărilor
  • Pe 7 zile
  • Temperatura apei
  • Hartă satelitară
  • Meteo pe hartă
  • Widget-uri
  • user-avatar
    Intrare

    Meteo pe oră la Algiers

    Astăzi, 21 Noiembrie, Marţi

    Timp Temperatura Precipitaţii Vânt Presiune Umiditate
    00:00 +15°C° 0 mm 1 m/s 754 mmHg 42%
    01:00 +15°C° 0 mm 1 m/s 754 mmHg 41%
    02:00 +15°C° 0 mm 1 m/s 754 mmHg 41%
    03:00 +14°C° 0 mm 1 m/s 753 mmHg 40%
    04:00 +14°C° 0 mm 1 m/s 753 mmHg 40%
    05:00 +14°C° 0 mm 2 m/s 753 mmHg 40%
    06:00 +14°C° 0 mm 2 m/s 753 mmHg 40%
    07:00 +16°C° 0 mm 2 m/s 754 mmHg 37%
    08:00 +17°C° 0 mm 2 m/s 754 mmHg 35%
    09:00 +19°C° 0 mm 2 m/s 754 mmHg 32%
    10:00 +21°C° 0 mm 1 m/s 754 mmHg 29%
    11:00 +22°C° 0 mm 1 m/s 753 mmHg 26%
    12:00 +24°C° 0 mm 1 m/s 753 mmHg 23%
    13:00 +24°C° 0 mm 1 m/s 753 mmHg 24%
    14:00 +24°C° 0 mm 1 m/s 752 mmHg 24%
    15:00 +23°C° 0 mm 2 m/s 752 mmHg 25%
    16:00 +21°C° 0 mm 2 m/s 752 mmHg 30%
    17:00 +19°C° 0 mm 2 m/s 752 mmHg 35%
    18:00 +17°C° 0 mm 2 m/s 752 mmHg 39%
    19:00 +17°C° 0 mm 2 m/s 752 mmHg 37%
    20:00 +17°C° 0 mm 2 m/s 752 mmHg 35%
    21:00 +16°C° 0 mm 2 m/s 752 mmHg 33%
    22:00 +16°C° 0 mm 2 m/s 752 mmHg 32%
    23:00 +16°C° 0 mm 2 m/s 752 mmHg 30%

    Mâine, 22 Noiembrie, Miercuri

    Timp Temperatura Precipitaţii Vânt Presiune Umiditate
    00:00 +15°C° 0 mm 2 m/s 752 mmHg 29%
    01:00 +15°C° 0 mm 2 m/s 752 mmHg 29%
    02:00 +15°C° 0 mm 2 m/s 751 mmHg 30%
    03:00 +15°C° 0 mm 2 m/s 751 mmHg 31%
    04:00 +13°C° 0 mm 3 m/s 751 mmHg 32%
    05:00 +13°C° 0 mm 3 m/s 751 mmHg 33%
    06:00 +13°C° 0 mm 3 m/s 751 mmHg 34%
    07:00 +14°C° 0 mm 3 m/s 751 mmHg 32%
    08:00 +17°C° 0 mm 3 m/s 751 mmHg 31%
    09:00 +18°C° 0 mm 3 m/s 751 mmHg 29%
    10:00 +19°C° 0 mm 3 m/s 751 mmHg 25%
    11:00 +21°C° 0 mm 2 m/s 750 mmHg 22%
    12:00 +23°C° 0 mm 2 m/s 750 mmHg 18%
    13:00 +23°C° 0 mm 2 m/s 750 mmHg 19%
    14:00 +23°C° 0 mm 1 m/s 750 mmHg 19%
    15:00 +23°C° 0 mm 1 m/s 749 mmHg 20%
    16:00 +21°C° 0 mm 1 m/s 750 mmHg 22%
    17:00 +19°C° 0 mm 2 m/s 750 mmHg 23%
    18:00 +17°C° 0 mm 2 m/s 750 mmHg 25%
    19:00 +16°C° 0 mm 2 m/s 750 mmHg 26%
    20:00 +16°C° 0 mm 2 m/s 750 mmHg 26%
    21:00 +16°C° 0 mm 2 m/s 750 mmHg 27%
    22:00 +15°C° 0 mm 2 m/s 750 mmHg 28%
    23:00 +14°C° 0 mm 3 m/s 750 mmHg 29%

    Poimâine, 23 Noiembrie, Joi

    Timp Temperatura Precipitaţii Vânt Presiune Umiditate
    00:00 +14°C° 0 mm 3 m/s 750 mmHg 29%
    01:00 +14°C° 0 mm 3 m/s 750 mmHg 30%
    02:00 +13°C° 0 mm 3 m/s 750 mmHg 31%
    03:00 +13°C° 0 mm 3 m/s 750 mmHg 32%
    04:00 +13°C° 0 mm 3 m/s 750 mmHg 32%
    05:00 +13°C° 0 mm 3 m/s 751 mmHg 32%
    06:00 +13°C° 0 mm 2 m/s 751 mmHg 32%
    07:00 +15°C° 0 mm 2 m/s 751 mmHg 31%
    08:00 +17°C° 0 mm 2 m/s 752 mmHg 29%
    09:00 +18°C° 0 mm 2 m/s 752 mmHg 27%
    10:00 +20°C° 0 mm 2 m/s 752 mmHg 25%
    11:00 +21°C° 0 mm 2 m/s 752 mmHg 22%
    12:00 +23°C° 0 mm 1 m/s 752 mmHg 20%
    13:00 +23°C° 0 mm 2 m/s 752 mmHg 21%
    14:00 +21°C° 0 mm 2 m/s 752 mmHg 23%
    15:00 +21°C° 0 mm 2 m/s 752 mmHg 24%
    16:00 +20°C° 0 mm 1 m/s 752 mmHg 30%
    17:00 +19°C° 0 mm 1 m/s 752 mmHg 36%
    18:00 +16°C° 0 mm 1 m/s 753 mmHg 41%
    19:00 +16°C° 0 mm 1 m/s 753 mmHg 41%
    20:00 +15°C° 0 mm 1 m/s 753 mmHg 40%
    21:00 +15°C° 0 mm 2 m/s 753 mmHg 39%
    22:00 +15°C° 0 mm 2 m/s 753 mmHg 37%
    23:00 +15°C° 0 mm 2 m/s 753 mmHg 36%

    24 Noiembrie, Vineri

    Timp Temperatura Precipitaţii Vânt Presiune Umiditate
    00:00 +15°C° 0 mm 2 m/s 753 mmHg 34%
    01:00 +15°C° 0 mm 2 m/s 753 mmHg 33%
    02:00 +14°C° 0 mm 2 m/s 753 mmHg 33%
    03:00 +14°C° 0 mm 2 m/s 753 mmHg 32%
    04:00 +14°C° 0 mm 2 m/s 753 mmHg 32%
    05:00 +14°C° 0 mm 2 m/s 753 mmHg 32%
    06:00 +14°C° 0 mm 2 m/s 753 mmHg 32%
    07:00 +16°C° 0 mm 2 m/s 753 mmHg 31%
    08:00 +17°C° 0 mm 2 m/s 753 mmHg 30%
    09:00 +19°C° 0 mm 2 m/s 754 mmHg 28%
    10:00 +20°C° 0 mm 2 m/s 753 mmHg 25%
    11:00 +23°C° 0 mm 2 m/s 753 mmHg 22%
    12:00 +24°C° 0 mm 2 m/s 753 mmHg 19%
    13:00 +24°C° 0 mm 2 m/s 752 mmHg 19%
    14:00 +24°C° 0 mm 2 m/s 752 mmHg 20%
    15:00 +24°C° 0 mm 2 m/s 752 mmHg 20%
    16:00 +21°C° 0 mm 3 m/s 752 mmHg 23%
    17:00 +19°C° 0 mm 3 m/s 752 mmHg 25%
    18:00 +18°C° 0 mm 3 m/s 752 mmHg 28%
    19:00 +17°C° 0 mm 3 m/s 752 mmHg 27%
    20:00 +17°C° 0 mm 3 m/s 753 mmHg 27%
    21:00 +16°C° 0 mm 3 m/s 753 mmHg 26%
    22:00 +16°C° 0 mm 3 m/s 753 mmHg 27%
    23:00 +16°C° 0 mm 3 m/s 752 mmHg 29%

    25 Noiembrie, Sâmbătă

    Timp Temperatura Precipitaţii Vânt Presiune Umiditate
    00:00 +14°C° 0 mm 3 m/s 752 mmHg 30%
    01:00 +14°C° 0 mm 3 m/s 752 mmHg 32%
    02:00 +14°C° 0 mm 3 m/s 752 mmHg 33%
    03:00 +14°C° 0 mm 4 m/s 752 mmHg 35%
    04:00 +13°C° 0 mm 4 m/s 752 mmHg 35%
    05:00 +13°C° 0 mm 4 m/s 752 mmHg 35%
    06:00 +13°C° 0 mm 4 m/s 752 mmHg 35%
    07:00 +15°C° 0 mm 4 m/s 753 mmHg 34%
    08:00 +17°C° 0 mm 4 m/s 753 mmHg 33%
    09:00 +18°C° 0 mm 4 m/s 753 mmHg 31%
    10:00 +20°C° 0 mm 3 m/s 753 mmHg 28%
    11:00 +21°C° 0 mm 3 m/s 753 mmHg 25%
    12:00 +24°C° 0 mm 2 m/s 752 mmHg 21%
    13:00 +24°C° 0 mm 2 m/s 752 mmHg 22%
    14:00 +24°C° 0 mm 1 m/s 752 mmHg 23%
    15:00 +24°C° 0 mm 1 m/s 752 mmHg 24%
    16:00 +22°C° 0 mm 1 m/s 752 mmHg 25%
    17:00 +20°C° 0 mm 2 m/s 752 mmHg 27%
    18:00 +18°C° 0 mm 2 m/s 753 mmHg 29%
    19:00 +17°C° 0 mm 2 m/s 753 mmHg 30%
    20:00 +17°C° 0 mm 2 m/s 753 mmHg 30%
    21:00 +17°C° 0 mm 3 m/s 754 mmHg 31%
    22:00 +16°C° 0 mm 3 m/s 753 mmHg 33%
    23:00 +16°C° 0 mm 3 m/s 753 mmHg 34%

    26 Noiembrie, Duminică

    Timp Temperatura Precipitaţii Vânt Presiune Umiditate
    00:00 +16°C° 0 mm 3 m/s 753 mmHg 36%
    01:00 +16°C° 0 mm 3 m/s 753 mmHg 38%
    02:00 +16°C° 0 mm 3 m/s 753 mmHg 39%
    03:00 +16°C° 0 mm 3 m/s 753 mmHg 41%
    04:00 +16°C° 0 mm 3 m/s 753 mmHg 40%
    05:00 +16°C° 0 mm 3 m/s 753 mmHg 40%
    06:00 +16°C° 0 mm 3 m/s 753 mmHg 40%
    07:00 +17°C° 0 mm 3 m/s 754 mmHg 38%
    08:00 +18°C° 0 mm 3 m/s 754 mmHg 37%
    09:00 +19°C° 0 mm 3 m/s 755 mmHg 36%
    10:00 +21°C° 0 mm 2 m/s 754 mmHg 32%
    11:00 +23°C° 0 mm 2 m/s 754 mmHg 28%
    12:00 +25°C° 0 mm 2 m/s 754 mmHg 23%
    13:00 +25°C° 0 mm 2 m/s 754 mmHg 24%
    14:00 +24°C° 0 mm 3 m/s 754 mmHg 25%
    15:00 +24°C° 0 mm 3 m/s 754 mmHg 25%
    16:00 +22°C° 0 mm 3 m/s 754 mmHg 31%
    17:00 +20°C° 0 mm 3 m/s 754 mmHg 36%
    18:00 +18°C° 0 mm 4 m/s 754 mmHg 42%
    19:00 +18°C° 0 mm 3 m/s 754 mmHg 41%
    20:00 +17°C° 0 mm 3 m/s 754 mmHg 40%
    21:00 +17°C° 0 mm 3 m/s 755 mmHg 39%
    22:00 +17°C° 0 mm 3 m/s 754 mmHg 38%
    23:00 +17°C° 0 mm 3 m/s 754 mmHg 37%
    Arată mai mult